Regional Weather Roundup
Issued by NWS

Home | Current Version | Previous Version | Graphics & Text | Print | Product List | Glossary On
Versions: 1 2 3 4 5 6 7 8 9 10 11 12 13 14 15 16 17 18 19 20 21 22 23 24 25 26 27 28 29 30 31 32 33 34 35 36 37 38 39 40 41 42 43 44 45 46 47 48 49 50
883
ASUS44 KMEG 061800
RWRTN
TENNESSEE HOURLY STATE WEATHER ROUNDUP
NATIONAL WEATHER SERVICE MEMPHIS TN
1200 PM CST SAT FEB 06 2016

TNZ002-004-019-021-049-052-054-088>092-061900-
WEST TENNESSEE

CITY           SKY/WX    TMP DP  RH WIND       PRES   REMARKS
MEMPHIS INTL   PTSUNNY   54  21  27 N6        30.36F
NWS MEMPHIS      N/A     52 N/A N/A MISG        N/A
JACKSON        SUNNY     51  21  30 S3        30.36F
DYERSBURG      MOSUNNY   52  25  35 W5        30.38F
UNION CITY     SUNNY     48  28  46 SW6       30.35F
PARIS          SUNNY     48  19  32 SW6       30.36F
LEXINGTON      SUNNY     50  18  27 VRB5      30.34F
$$

TNZ008-025-027-028-033-062-065-066-061900-
NORTH MIDDLE TENNESSEE

CITY           SKY/WX    TMP DP  RH WIND       PRES   REMARKS
NASHVILLE      PTSUNNY   52  16  24 CALM      30.36F
CLARKSVILLE    MOSUNNY   51  21  30 S10       30.35F
COOKEVILLE     SUNNY     46  19  34 CALM      30.34F
CROSSVILLE     MOSUNNY   44  16  32 NW8       30.32F
$$

TNZ061-075-076-078-094-096-097-061900-
SOUTH MIDDLE TENNESSEE

CITY           SKY/WX    TMP DP  RH WIND       PRES   REMARKS
TULLAHOMA      SUNNY     46  12  25 SE5       30.35F
WINCHESTER     SUNNY     46  19  34 S6        30.35F
MCMINNVILLE    SUNNY     46  18  31 N7        30.35F
COLUMBIA       SUNNY     50  21  32 CALM      30.34F
SHELBYVILLE    SUNNY     52  19  28 VRB5      30.36F
$$

TNZ017-018-042-046-047-061900-
NORTHEAST TENNESSEE

CITY           SKY/WX    TMP DP  RH WIND       PRES   REMARKS
TRI CITIES     PTSUNNY   44  16  32 VRB5      30.34F
$$

TNZ012-013-036-069-073-074-061900-
CENTRAL EAST TENNESSEE

CITY           SKY/WX    TMP DP  RH WIND       PRES   REMARKS
KNOXVILLE      CLOUDY    46  18  32 CALM      30.35F
OAK RIDGE      SUNNY     46  19  34 CALM      30.37F
GATLINBURG       N/A     45  18  33 CALM      30.34F
$$

TNZ083-085-099-061900-
SOUTHEAST TENNESSEE

CITY           SKY/WX    TMP DP  RH WIND       PRES   REMARKS
CHATTANOOGA    PTSUNNY   45  16  31 CALM      30.37F
$$

SKY/WX REPORTED AS FAIR MEANS FEW OR NO CLOUDS BELOW
12 THOUSAND FEET.





USA.gov is the U.S. government's official web portal to all federal, state and local government web resources and services.